Year,Month,Day,Hour,Minute,Value (Times are PST for temperature in C)
2018,04,26,00,00,13.70
2018,04,26,00,01,13.70
2018,04,26,00,02,13.80
2018,04,26,00,03,13.90
2018,04,26,00,04,13.90
2018,04,26,00,05,14.00
2018,04,26,00,06,14.10
2018,04,26,00,07,14.10
2018,04,26,00,08,14.20
2018,04,26,00,09,14.20
2018,04,26,00,10,14.20
2018,04,26,00,11,14.20
2018,04,26,00,12,14.30
2018,04,26,00,13,14.30
2018,04,26,00,14,14.30
2018,04,26,00,15,14.30
2018,04,26,00,16,14.20
2018,04,26,00,17,14.20
2018,04,26,00,18,14.10
2018,04,26,00,19,14.10
2018,04,26,00,20,14.00
2018,04,26,00,21,13.90
2018,04,26,00,22,13.80
2018,04,26,00,23,13.70
2018,04,26,00,24,13.60
2018,04,26,00,25,13.60
2018,04,26,00,26,13.50
2018,04,26,00,27,13.40
2018,04,26,00,28,13.40
2018,04,26,00,29,13.30
2018,04,26,00,30,13.30
2018,04,26,00,31,13.20
2018,04,26,00,32,13.10
2018,04,26,00,33,13.10
2018,04,26,00,34,13.00
2018,04,26,00,35,13.00
2018,04,26,00,36,12.90
2018,04,26,00,37,12.90
2018,04,26,00,38,12.90
2018,04,26,00,39,12.90
2018,04,26,00,40,12.90
2018,04,26,00,41,12.90
2018,04,26,00,42,12.90
2018,04,26,00,43,12.90
2018,04,26,00,44,12.90
2018,04,26,00,45,13.00
2018,04,26,00,46,13.00
2018,04,26,00,47,13.10
2018,04,26,00,48,13.10
2018,04,26,00,49,13.10
2018,04,26,00,50,13.20
2018,04,26,00,51,13.20
2018,04,26,00,52,13.20
2018,04,26,00,53,13.20
2018,04,26,00,54,13.20
2018,04,26,00,55,13.30
2018,04,26,00,56,13.30
2018,04,26,00,57,13.30
2018,04,26,00,58,13.40
2018,04,26,00,59,13.40
2018,04,26,01,00,13.40
2018,04,26,01,01,13.50
2018,04,26,01,02,13.60
2018,04,26,01,03,13.60
2018,04,26,01,04,13.70
2018,04,26,01,05,13.70
2018,04,26,01,06,13.80
2018,04,26,01,07,13.90
2018,04,26,01,08,14.00
2018,04,26,01,09,14.00
2018,04,26,01,10,14.10
2018,04,26,01,11,14.10
2018,04,26,01,12,14.20
2018,04,26,01,13,14.20
2018,04,26,01,14,14.20
2018,04,26,01,15,14.20
2018,04,26,01,16,14.20
2018,04,26,01,17,14.20
2018,04,26,01,18,14.20
2018,04,26,01,19,14.20
2018,04,26,01,20,14.20
2018,04,26,01,21,14.20
2018,04,26,01,22,14.10
2018,04,26,01,23,14.10
2018,04,26,01,24,14.00
2018,04,26,01,25,14.00
2018,04,26,01,26,13.90
2018,04,26,01,27,13.90
2018,04,26,01,28,13.90
2018,04,26,01,29,13.80
2018,04,26,01,30,13.80
2018,04,26,01,31,13.80
2018,04,26,01,32,13.70
2018,04,26,01,33,13.70
2018,04,26,01,34,13.70
2018,04,26,01,35,13.70
2018,04,26,01,36,13.70
2018,04,26,01,37,13.60
2018,04,26,01,38,13.60
2018,04,26,01,39,13.50
2018,04,26,01,40,13.50
2018,04,26,01,41,13.50
2018,04,26,01,42,13.40
2018,04,26,01,43,13.40
2018,04,26,01,44,13.30
2018,04,26,01,45,13.30
2018,04,26,01,46,13.30
2018,04,26,01,47,13.20
2018,04,26,01,48,13.20
2018,04,26,01,49,13.20
2018,04,26,01,50,13.20
2018,04,26,01,51,13.20
2018,04,26,01,52,13.20
2018,04,26,01,53,13.20
2018,04,26,01,54,13.30
2018,04,26,01,55,13.30
2018,04,26,01,56,13.30
2018,04,26,01,57,13.20
2018,04,26,01,58,13.20
2018,04,26,01,59,13.20
2018,04,26,02,00,13.10
2018,04,26,02,01,13.00
2018,04,26,02,02,13.00
2018,04,26,02,03,12.90
2018,04,26,02,04,12.80
2018,04,26,02,05,12.80
2018,04,26,02,06,12.80
2018,04,26,02,07,12.70
2018,04,26,02,08,12.70
2018,04,26,02,09,12.70
2018,04,26,02,10,12.70
2018,04,26,02,11,12.70
2018,04,26,02,12,12.70
2018,04,26,02,13,12.60
2018,04,26,02,14,12.60
2018,04,26,02,15,12.60
2018,04,26,02,16,12.60
2018,04,26,02,17,12.60
2018,04,26,02,18,12.60
2018,04,26,02,19,12.60
2018,04,26,02,20,12.50
2018,04,26,02,21,12.50
2018,04,26,02,22,12.40
2018,04,26,02,23,12.40
2018,04,26,02,24,12.40
2018,04,26,02,25,12.40
2018,04,26,02,26,12.30
2018,04,26,02,27,12.30
2018,04,26,02,28,12.30
2018,04,26,02,29,12.30
2018,04,26,02,30,12.30
2018,04,26,02,31,12.30
2018,04,26,02,32,12.20
2018,04,26,02,33,12.20
2018,04,26,02,34,12.20
2018,04,26,02,35,12.20
2018,04,26,02,36,12.20
2018,04,26,02,37,12.20
2018,04,26,02,38,12.10
2018,04,26,02,39,12.10
2018,04,26,02,40,12.10
2018,04,26,02,41,12.10
2018,04,26,02,42,12.00
2018,04,26,02,43,12.00
2018,04,26,02,44,12.00
2018,04,26,02,45,11.90
2018,04,26,02,46,12.00
2018,04,26,02,47,12.00
2018,04,26,02,48,12.00
2018,04,26,02,49,12.00
2018,04,26,02,50,12.00
2018,04,26,02,51,11.90
2018,04,26,02,52,11.90
2018,04,26,02,53,11.90
2018,04,26,02,54,12.00
2018,04,26,02,55,12.00
2018,04,26,02,56,12.10
2018,04,26,02,57,12.10
2018,04,26,02,58,12.20
2018,04,26,02,59,12.30
2018,04,26,03,00,12.30
2018,04,26,03,01,12.30
2018,04,26,03,02,12.20
2018,04,26,03,03,12.20
2018,04,26,03,04,12.20
2018,04,26,03,05,12.20
2018,04,26,03,06,12.20
2018,04,26,03,07,12.20
2018,04,26,03,08,12.20
2018,04,26,03,09,12.10
2018,04,26,03,10,12.10
2018,04,26,03,11,12.10
2018,04,26,03,12,12.10
2018,04,26,03,13,12.10
2018,04,26,03,14,12.00
2018,04,26,03,15,12.00
2018,04,26,03,16,12.00
2018,04,26,03,17,11.90
2018,04,26,03,18,11.90
2018,04,26,03,19,11.90
2018,04,26,03,20,11.90
2018,04,26,03,21,11.90
2018,04,26,03,22,11.90
2018,04,26,03,23,12.00
2018,04,26,03,24,12.00
2018,04,26,03,25,12.10
2018,04,26,03,26,12.10
2018,04,26,03,27,12.10
2018,04,26,03,28,12.10
2018,04,26,03,29,12.10
2018,04,26,03,30,12.00
2018,04,26,03,31,12.00
2018,04,26,03,32,12.00
2018,04,26,03,33,12.00
2018,04,26,03,34,11.90
2018,04,26,03,35,11.90
2018,04,26,03,36,11.90
2018,04,26,03,37,11.80
2018,04,26,03,38,11.70
2018,04,26,03,39,11.50
2018,04,26,03,40,11.40
2018,04,26,03,41,11.30
2018,04,26,03,42,11.20
2018,04,26,03,43,11.10
2018,04,26,03,44,11.00
2018,04,26,03,45,11.00
2018,04,26,03,46,10.90
2018,04,26,03,47,10.90
2018,04,26,03,48,10.90
2018,04,26,03,49,10.90
2018,04,26,03,50,11.00
2018,04,26,03,51,11.10
2018,04,26,03,52,11.30
2018,04,26,03,53,11.40
2018,04,26,03,54,11.60
2018,04,26,03,55,11.80
2018,04,26,03,56,11.90
2018,04,26,03,57,12.10
2018,04,26,03,58,12.20
2018,04,26,03,59,12.30
2018,04,26,04,00,12.40
2018,04,26,04,01,12.50
2018,04,26,04,02,12.60
2018,04,26,04,03,12.60
2018,04,26,04,04,12.70
2018,04,26,04,05,12.80
2018,04,26,04,06,12.90
2018,04,26,04,07,12.90
2018,04,26,04,08,13.00
2018,04,26,04,09,13.00
2018,04,26,04,10,13.10
2018,04,26,04,11,13.10
2018,04,26,04,12,13.10
2018,04,26,04,13,13.10
2018,04,26,04,14,13.20
2018,04,26,04,15,13.20
2018,04,26,04,16,13.30
2018,04,26,04,17,13.30
2018,04,26,04,18,13.30
2018,04,26,04,19,13.40
2018,04,26,04,20,13.40
2018,04,26,04,21,13.40
2018,04,26,04,22,13.50
2018,04,26,04,23,13.50
2018,04,26,04,24,13.50
2018,04,26,04,25,13.50
2018,04,26,04,26,13.50
2018,04,26,04,27,13.60
2018,04,26,04,28,13.60
2018,04,26,04,29,13.60
2018,04,26,04,30,13.60
2018,04,26,04,31,13.60
2018,04,26,04,32,13.50
2018,04,26,04,33,13.50
2018,04,26,04,34,13.50
2018,04,26,04,35,13.40
2018,04,26,04,36,13.40
2018,04,26,04,37,13.40
2018,04,26,04,38,13.40
2018,04,26,04,39,13.30
2018,04,26,04,40,13.30
2018,04,26,04,41,13.30
2018,04,26,04,42,13.30
2018,04,26,04,43,13.30
2018,04,26,04,44,13.30
2018,04,26,04,45,13.20
2018,04,26,04,46,13.20
2018,04,26,04,47,13.20
2018,04,26,04,48,13.20
2018,04,26,04,49,13.20
2018,04,26,04,50,13.20
2018,04,26,04,51,13.20
2018,04,26,04,52,13.20
2018,04,26,04,53,13.20
2018,04,26,04,54,13.20
2018,04,26,04,55,13.20
2018,04,26,04,56,13.20
2018,04,26,04,57,13.20
2018,04,26,04,58,13.20
2018,04,26,04,59,13.20
2018,04,26,05,00,13.20
2018,04,26,05,01,13.30
2018,04,26,05,02,13.30
2018,04,26,05,03,13.30
2018,04,26,05,04,13.30
2018,04,26,05,05,13.30
2018,04,26,05,06,13.30
2018,04,26,05,07,13.30
2018,04,26,05,08,13.30
2018,04,26,05,09,13.30
2018,04,26,05,10,13.20
2018,04,26,05,11,13.20
2018,04,26,05,12,13.20
2018,04,26,05,13,13.30
2018,04,26,05,14,13.30
2018,04,26,05,15,13.30
2018,04,26,05,16,13.30
2018,04,26,05,17,13.30
2018,04,26,05,18,13.30
2018,04,26,05,19,13.30
2018,04,26,05,20,13.30
2018,04,26,05,21,13.30
2018,04,26,05,22,13.30
2018,04,26,05,23,13.30
2018,04,26,05,24,13.30
2018,04,26,05,25,13.30
2018,04,26,05,26,13.30
2018,04,26,05,27,13.30
2018,04,26,05,28,13.40
2018,04,26,05,29,13.40
2018,04,26,05,30,13.40
2018,04,26,05,31,13.40
2018,04,26,05,32,13.40
2018,04,26,05,33,13.40
2018,04,26,05,34,13.40
2018,04,26,05,35,13.40
2018,04,26,05,36,13.40
2018,04,26,05,37,13.40
2018,04,26,05,38,13.40
2018,04,26,05,39,13.40
2018,04,26,05,40,13.40
2018,04,26,05,41,13.40
2018,04,26,05,42,13.40
2018,04,26,05,43,13.40
2018,04,26,05,44,13.50
2018,04,26,05,45,13.50
2018,04,26,05,46,13.50
2018,04,26,05,47,13.60
2018,04,26,05,48,13.60
2018,04,26,05,49,13.50
2018,04,26,05,50,13.50
2018,04,26,05,51,13.50
2018,04,26,05,52,13.50
2018,04,26,05,53,13.40
2018,04,26,05,54,13.40
2018,04,26,05,55,13.40
2018,04,26,05,56,13.40
2018,04,26,05,57,13.40
2018,04,26,05,58,13.30
2018,04,26,05,59,13.30
2018,04,26,06,00,13.30
2018,04,26,06,01,13.30
2018,04,26,06,02,13.30
2018,04,26,06,03,13.20
2018,04,26,06,04,13.20
2018,04,26,06,05,13.20
2018,04,26,06,06,13.20
2018,04,26,06,07,13.20
2018,04,26,06,08,13.20
2018,04,26,06,09,13.30
2018,04,26,06,10,13.30
2018,04,26,06,11,13.30
2018,04,26,06,12,13.40
2018,04,26,06,13,13.40
2018,04,26,06,14,13.50
2018,04,26,06,15,13.60
2018,04,26,06,16,13.60
2018,04,26,06,17,13.70
2018,04,26,06,18,13.70
2018,04,26,06,19,13.70
2018,04,26,06,20,13.80
2018,04,26,06,21,13.80
2018,04,26,06,22,13.80
2018,04,26,06,23,13.90
2018,04,26,06,24,13.90
2018,04,26,06,25,13.90
2018,04,26,06,26,13.90
2018,04,26,06,27,14.00
2018,04,26,06,28,14.00
2018,04,26,06,29,14.00
2018,04,26,06,30,14.00
2018,04,26,06,31,14.10
2018,04,26,06,32,14.10
2018,04,26,06,33,14.10
2018,04,26,06,34,14.10
2018,04,26,06,35,14.10
2018,04,26,06,36,14.10
2018,04,26,06,37,14.10
2018,04,26,06,38,14.10
2018,04,26,06,39,14.10
2018,04,26,06,40,14.00
2018,04,26,06,41,14.00
2018,04,26,06,42,14.00
2018,04,26,06,43,14.00
2018,04,26,06,44,13.90
2018,04,26,06,45,13.90
2018,04,26,06,46,13.90
2018,04,26,06,47,13.90
2018,04,26,06,48,13.80
2018,04,26,06,49,13.80
2018,04,26,06,50,13.80
2018,04,26,06,51,13.80
2018,04,26,06,52,13.70
2018,04,26,06,53,13.70
2018,04,26,06,54,13.70
2018,04,26,06,55,13.70
2018,04,26,06,56,13.70
2018,04,26,06,57,13.70
2018,04,26,06,58,13.70
2018,04,26,06,59,13.80
2018,04,26,07,00,13.80
2018,04,26,07,01,13.80
2018,04,26,07,02,13.80
2018,04,26,07,03,13.90
2018,04,26,07,04,13.90
2018,04,26,07,05,14.00
2018,04,26,07,06,14.10
2018,04,26,07,07,14.10
2018,04,26,07,08,14.20
2018,04,26,07,09,14.20
2018,04,26,07,10,14.30
2018,04,26,07,11,14.40
2018,04,26,07,12,14.40
2018,04,26,07,13,14.50
2018,04,26,07,14,14.50
2018,04,26,07,15,14.60
2018,04,26,07,16,14.60
2018,04,26,07,17,14.70
2018,04,26,07,18,14.80
2018,04,26,07,19,14.80
2018,04,26,07,20,14.90
2018,04,26,07,21,14.90
2018,04,26,07,22,15.00
2018,04,26,07,23,15.10
2018,04,26,07,24,15.10
2018,04,26,07,25,15.20
2018,04,26,07,26,15.20
2018,04,26,07,27,15.30
2018,04,26,07,28,15.30
2018,04,26,07,29,15.40
2018,04,26,07,30,15.40
2018,04,26,07,31,15.40
2018,04,26,07,32,15.50
2018,04,26,07,33,15.50
2018,04,26,07,34,15.60
2018,04,26,07,35,15.60
2018,04,26,07,36,15.60
2018,04,26,07,37,15.60
2018,04,26,07,38,15.60
2018,04,26,07,39,15.60
2018,04,26,07,40,15.60
2018,04,26,07,41,15.60
2018,04,26,07,42,15.60
2018,04,26,07,43,15.60
2018,04,26,07,44,15.60
2018,04,26,07,45,15.60
2018,04,26,07,46,15.60
2018,04,26,07,47,15.50
2018,04,26,07,48,15.50
2018,04,26,07,49,15.50
2018,04,26,07,50,15.50
2018,04,26,07,51,15.50
2018,04,26,07,52,15.50
2018,04,26,07,53,15.50
2018,04,26,07,54,15.50
2018,04,26,07,55,15.50
2018,04,26,07,56,15.50
2018,04,26,07,57,15.50
2018,04,26,07,58,15.60
2018,04,26,07,59,15.60
2018,04,26,08,00,15.60
2018,04,26,08,01,15.70
2018,04,26,08,02,15.70
2018,04,26,08,03,15.80
2018,04,26,08,04,15.80
2018,04,26,08,05,15.80
2018,04,26,08,06,15.90
2018,04,26,08,07,15.90
2018,04,26,08,08,15.90
2018,04,26,08,09,15.90
2018,04,26,08,10,16.00
2018,04,26,08,11,16.00
2018,04,26,08,12,16.00
2018,04,26,08,13,16.10
2018,04,26,08,14,16.10
2018,04,26,08,15,16.10
2018,04,26,08,16,16.10
2018,04,26,08,17,16.20
2018,04,26,08,18,16.20
2018,04,26,08,19,16.20
2018,04,26,08,20,16.20
2018,04,26,08,21,16.20
2018,04,26,08,22,16.20
2018,04,26,08,23,16.20
2018,04,26,08,24,16.20
2018,04,26,08,25,16.20
2018,04,26,08,26,16.20
2018,04,26,08,27,16.20
2018,04,26,08,28,16.20
2018,04,26,08,29,16.20
2018,04,26,08,30,16.10
2018,04,26,08,31,16.10
2018,04,26,08,32,16.10
2018,04,26,08,33,16.10
2018,04,26,08,34,16.00
2018,04,26,08,35,16.00
2018,04,26,08,36,16.00
2018,04,26,08,37,16.00
2018,04,26,08,38,15.90
2018,04,26,08,39,15.90
2018,04,26,08,40,15.90
2018,04,26,08,41,15.90
2018,04,26,08,42,15.90
2018,04,26,08,43,15.90
2018,04,26,08,44,15.90
2018,04,26,08,45,15.90
2018,04,26,08,46,15.90
2018,04,26,08,47,15.90
2018,04,26,08,48,16.00
2018,04,26,08,49,16.00
2018,04,26,08,50,16.10
2018,04,26,08,51,16.10
2018,04,26,08,52,16.20
2018,04,26,08,53,16.20
2018,04,26,08,54,16.30
2018,04,26,08,55,16.30
2018,04,26,08,56,16.40
2018,04,26,08,57,16.40
2018,04,26,08,58,16.50
2018,04,26,08,59,16.50
2018,04,26,09,00,16.60
2018,04,26,09,01,16.60
2018,04,26,09,02,16.70
2018,04,26,09,03,16.80
2018,04,26,09,04,16.80
2018,04,26,09,05,16.90
2018,04,26,09,06,17.00
2018,04,26,09,07,17.00
2018,04,26,09,08,17.10
2018,04,26,09,09,17.10
2018,04,26,09,10,17.20
2018,04,26,09,11,17.20
2018,04,26,09,12,17.30
2018,04,26,09,13,17.30
2018,04,26,09,14,17.40
2018,04,26,09,15,17.40
2018,04,26,09,16,17.40
2018,04,26,09,17,17.50
2018,04,26,09,18,17.50
2018,04,26,09,19,17.60
2018,04,26,09,20,17.60
2018,04,26,09,21,17.60
2018,04,26,09,22,17.70
2018,04,26,09,23,17.70
2018,04,26,09,24,17.70
2018,04,26,09,25,17.70
2018,04,26,09,26,17.70
2018,04,26,09,27,17.80
2018,04,26,09,28,17.80
2018,04,26,09,29,17.80
2018,04,26,09,30,17.80
2018,04,26,09,31,17.80
2018,04,26,09,32,17.90
2018,04,26,09,33,17.90
2018,04,26,09,34,17.90
2018,04,26,09,35,18.00
2018,04,26,09,36,18.00
2018,04,26,09,37,18.00
2018,04,26,09,38,18.10
2018,04,26,09,39,18.10
2018,04,26,09,40,18.20
2018,04,26,09,41,18.20
2018,04,26,09,42,18.20
2018,04,26,09,43,18.30
2018,04,26,09,44,18.30
2018,04,26,09,45,18.30
2018,04,26,09,46,18.40
2018,04,26,09,47,18.40
2018,04,26,09,48,18.40
2018,04,26,09,49,18.50
2018,04,26,09,50,18.50
2018,04,26,09,51,18.60
2018,04,26,09,52,18.60
2018,04,26,09,53,18.60
2018,04,26,09,54,18.60
2018,04,26,09,55,18.60
2018,04,26,09,56,18.70
2018,04,26,09,57,18.70
2018,04,26,09,58,18.60
2018,04,26,09,59,18.70
2018,04,26,10,00,18.60
2018,04,26,10,01,18.60
2018,04,26,10,02,18.50
2018,04,26,10,03,18.50
2018,04,26,10,04,18.40
2018,04,26,10,05,18.40
2018,04,26,10,06,18.40
2018,04,26,10,07,18.30
2018,04,26,10,08,18.20
2018,04,26,10,09,18.20
2018,04,26,10,10,18.10
2018,04,26,10,11,18.10
2018,04,26,10,12,18.10
2018,04,26,10,13,18.00
2018,04,26,10,14,18.00
2018,04,26,10,15,17.90
2018,04,26,10,16,18.00
2018,04,26,10,17,18.00
2018,04,26,10,18,18.10
2018,04,26,10,19,18.10
2018,04,26,10,20,18.10
2018,04,26,10,21,18.10
2018,04,26,10,22,18.20
2018,04,26,10,23,18.20
2018,04,26,10,24,18.20
2018,04,26,10,25,18.20
2018,04,26,10,26,18.20
2018,04,26,10,27,18.20
2018,04,26,10,28,18.20
2018,04,26,10,29,18.20
2018,04,26,10,30,18.20
2018,04,26,10,31,18.20
2018,04,26,10,32,18.20
2018,04,26,10,33,18.20
2018,04,26,10,34,18.10
2018,04,26,10,35,18.10
2018,04,26,10,36,18.10
2018,04,26,10,37,18.20
2018,04,26,10,38,18.20
2018,04,26,10,39,18.10
2018,04,26,10,40,18.20
2018,04,26,10,41,18.30
2018,04,26,10,42,18.30
2018,04,26,10,43,18.30
2018,04,26,10,44,18.30
2018,04,26,10,45,18.40
2018,04,26,10,46,18.40
2018,04,26,10,47,18.40
2018,04,26,10,48,18.40
2018,04,26,10,49,18.50
2018,04,26,10,50,18.60
2018,04,26,10,51,18.60
2018,04,26,10,52,18.70
2018,04,26,10,53,18.80
2018,04,26,10,54,18.80
2018,04,26,10,55,18.80
2018,04,26,10,56,18.80
2018,04,26,10,57,18.80
2018,04,26,10,58,18.70
2018,04,26,10,59,18.70
2018,04,26,11,00,18.80
2018,04,26,11,01,18.80
2018,04,26,11,02,18.80
2018,04,26,11,03,18.80
2018,04,26,11,04,18.80
2018,04,26,11,05,18.90
2018,04,26,11,06,18.90
2018,04,26,11,07,18.90
2018,04,26,11,08,18.90
2018,04,26,11,09,18.90
2018,04,26,11,10,19.00
2018,04,26,11,11,19.10
2018,04,26,11,12,19.10
2018,04,26,11,13,19.10
2018,04,26,11,14,19.10
2018,04,26,11,15,19.20
2018,04,26,11,16,19.20
2018,04,26,11,17,19.20
2018,04,26,11,18,19.20
2018,04,26,11,19,19.30
2018,04,26,11,20,19.30
2018,04,26,11,21,19.40
2018,04,26,11,22,19.40
2018,04,26,11,23,19.50
2018,04,26,11,24,19.50
2018,04,26,11,25,19.60
2018,04,26,11,26,19.60
2018,04,26,11,27,19.60
2018,04,26,11,28,19.60
2018,04,26,11,29,19.60
2018,04,26,11,30,19.50
2018,04,26,11,31,19.60
2018,04,26,11,32,19.60
2018,04,26,11,33,19.60
2018,04,26,11,34,19.60
2018,04,26,11,35,19.60
2018,04,26,11,36,19.60
2018,04,26,11,37,19.60
2018,04,26,11,38,19.50
2018,04,26,11,39,19.50
2018,04,26,11,40,19.40
2018,04,26,11,41,19.40
2018,04,26,11,42,19.30
2018,04,26,11,43,19.30
2018,04,26,11,44,19.20
2018,04,26,11,45,19.20
2018,04,26,11,46,19.30
2018,04,26,11,47,19.30
2018,04,26,11,48,19.30
2018,04,26,11,49,19.30
2018,04,26,11,50,19.30
2018,04,26,11,51,19.30
2018,04,26,11,52,19.30
2018,04,26,11,53,19.40
2018,04,26,11,54,19.50
2018,04,26,11,55,19.70
2018,04,26,11,56,19.70
2018,04,26,11,57,19.80
2018,04,26,11,58,19.80
2018,04,26,11,59,19.80
2018,04,26,12,00,19.80
2018,04,26,12,01,19.80
2018,04,26,12,02,19.90
2018,04,26,12,03,19.90
2018,04,26,12,04,20.00
2018,04,26,12,05,20.10
2018,04,26,12,06,20.20
2018,04,26,12,07,20.30
2018,04,26,12,08,20.40
2018,04,26,12,09,20.50
2018,04,26,12,10,20.60
2018,04,26,12,11,20.60
2018,04,26,12,12,20.60
2018,04,26,12,13,20.60
2018,04,26,12,14,20.60
2018,04,26,12,15,20.70
2018,04,26,12,16,20.70
2018,04,26,12,17,20.80
2018,04,26,12,18,20.80
2018,04,26,12,19,20.80
2018,04,26,12,20,20.80
2018,04,26,12,21,20.80
2018,04,26,12,22,20.80
2018,04,26,12,23,20.80
2018,04,26,12,24,20.80
2018,04,26,12,25,20.90
2018,04,26,12,26,20.90
2018,04,26,12,27,21.00
2018,04,26,12,28,21.00
2018,04,26,12,29,21.10
2018,04,26,12,30,21.10
2018,04,26,12,31,21.00
2018,04,26,12,32,20.90
2018,04,26,12,33,20.90
2018,04,26,12,34,20.90
2018,04,26,12,35,21.00
2018,04,26,12,36,21.10
2018,04,26,12,37,21.10
2018,04,26,12,38,21.00
2018,04,26,12,39,21.00
2018,04,26,12,40,21.00
2018,04,26,12,41,21.00
2018,04,26,12,42,21.00
2018,04,26,12,43,21.00
2018,04,26,12,44,21.00
2018,04,26,12,45,20.90
2018,04,26,12,46,20.90
2018,04,26,12,47,20.90
2018,04,26,12,48,20.90
2018,04,26,12,49,20.90
2018,04,26,12,50,20.90
2018,04,26,12,51,20.90
2018,04,26,12,52,20.90
2018,04,26,12,53,20.90
2018,04,26,12,54,20.90
2018,04,26,12,55,21.00
2018,04,26,12,56,21.00
2018,04,26,12,57,21.10
2018,04,26,12,58,21.20
2018,04,26,12,59,21.10
2018,04,26,13,00,21.10
2018,04,26,13,01,21.10
2018,04,26,13,02,21.10
2018,04,26,13,03,21.10
2018,04,26,13,04,21.00
2018,04,26,13,05,21.10
2018,04,26,13,06,21.10
2018,04,26,13,07,21.10
2018,04,26,13,08,21.10
2018,04,26,13,09,21.10
2018,04,26,13,10,21.20
2018,04,26,13,11,21.20
2018,04,26,13,12,21.30
2018,04,26,13,13,21.40
2018,04,26,13,14,21.40
2018,04,26,13,15,21.50
2018,04,26,13,16,21.60
2018,04,26,13,17,21.70
2018,04,26,13,18,21.80
2018,04,26,13,19,21.80
2018,04,26,13,20,21.80
2018,04,26,13,21,21.70
2018,04,26,13,22,21.70
2018,04,26,13,23,21.70
2018,04,26,13,24,21.70
2018,04,26,13,25,21.80
2018,04,26,13,26,21.80
2018,04,26,13,27,21.80
2018,04,26,13,28,21.80
2018,04,26,13,29,21.80
2018,04,26,13,30,21.90
2018,04,26,13,31,21.90
2018,04,26,13,32,21.90
2018,04,26,13,33,21.90
2018,04,26,13,34,22.00
2018,04,26,13,35,22.10
2018,04,26,13,36,22.20
2018,04,26,13,37,22.20
2018,04,26,13,38,22.20
2018,04,26,13,39,22.10
2018,04,26,13,40,22.00
2018,04,26,13,41,22.00
2018,04,26,13,42,22.00
2018,04,26,13,43,22.10
2018,04,26,13,44,22.10
2018,04,26,13,45,22.00
2018,04,26,13,46,22.00
2018,04,26,13,47,21.90
2018,04,26,13,48,21.90
2018,04,26,13,49,22.00
2018,04,26,13,50,22.00
2018,04,26,13,51,22.10
2018,04,26,13,52,22.10
2018,04,26,13,53,22.20
2018,04,26,13,54,22.30
2018,04,26,13,55,22.30
2018,04,26,13,56,22.30
2018,04,26,13,57,22.40
2018,04,26,13,58,22.40
2018,04,26,13,59,22.50
2018,04,26,14,00,22.50
2018,04,26,14,01,22.50
2018,04,26,14,02,22.50
2018,04,26,14,03,22.50
2018,04,26,14,04,22.50
2018,04,26,14,05,22.60
2018,04,26,14,06,22.60
2018,04,26,14,07,22.60
2018,04,26,14,08,22.50
2018,04,26,14,09,22.40
2018,04,26,14,10,22.40
2018,04,26,14,11,22.30
2018,04,26,14,12,22.20
2018,04,26,14,13,22.20
2018,04,26,14,14,22.20
2018,04,26,14,15,22.30
2018,04,26,14,16,22.30
2018,04,26,14,17,22.30
2018,04,26,14,18,22.40
2018,04,26,14,19,22.40
2018,04,26,14,20,22.40
2018,04,26,14,21,22.40
2018,04,26,14,22,22.40
2018,04,26,14,23,22.40
2018,04,26,14,24,22.30
2018,04,26,14,25,22.40
2018,04,26,14,26,22.40
2018,04,26,14,27,22.40
2018,04,26,14,28,22.50
2018,04,26,14,29,22.60
2018,04,26,14,30,22.60
2018,04,26,14,31,22.70
2018,04,26,14,32,22.70
2018,04,26,14,33,22.70
2018,04,26,14,34,22.70
2018,04,26,14,35,22.60
2018,04,26,14,36,22.60
2018,04,26,14,37,22.60
2018,04,26,14,38,22.60
2018,04,26,14,39,22.70
2018,04,26,14,40,22.70
2018,04,26,14,41,22.80
2018,04,26,14,42,22.80
2018,04,26,14,43,22.90
2018,04,26,14,44,23.00
2018,04,26,14,45,23.10
2018,04,26,14,46,23.10
2018,04,26,14,47,23.10
2018,04,26,14,48,23.00
2018,04,26,14,49,22.90
2018,04,26,14,50,22.80
2018,04,26,14,51,22.80
2018,04,26,14,52,22.70
2018,04,26,14,53,22.70
2018,04,26,14,54,22.60
2018,04,26,14,55,22.60
2018,04,26,14,56,22.60
2018,04,26,14,57,22.60
2018,04,26,14,58,22.70
2018,04,26,14,59,22.70
2018,04,26,15,00,22.80
2018,04,26,15,01,22.80
2018,04,26,15,02,22.90
2018,04,26,15,03,22.90
2018,04,26,15,04,22.90
2018,04,26,15,05,22.90
2018,04,26,15,06,23.00
2018,04,26,15,07,23.00
2018,04,26,15,08,23.00
2018,04,26,15,09,23.00
2018,04,26,15,10,23.00
2018,04,26,15,11,23.00
2018,04,26,15,12,23.00
2018,04,26,15,13,23.10
2018,04,26,15,14,23.20
2018,04,26,15,15,23.20
2018,04,26,15,16,23.20
2018,04,26,15,17,23.20
2018,04,26,15,18,23.10
2018,04,26,15,19,23.10
2018,04,26,15,20,23.10
2018,04,26,15,21,23.10
2018,04,26,15,22,23.10
2018,04,26,15,23,23.20
2018,04,26,15,24,23.20
2018,04,26,15,25,23.30
2018,04,26,15,26,23.30
2018,04,26,15,27,23.30
2018,04,26,15,28,23.40
2018,04,26,15,29,23.40
2018,04,26,15,30,23.40
2018,04,26,15,31,23.40
2018,04,26,15,32,23.50
2018,04,26,15,33,23.50
2018,04,26,15,34,23.60
2018,04,26,15,35,23.50
2018,04,26,15,36,23.50
2018,04,26,15,37,23.40
2018,04,26,15,38,23.40
2018,04,26,15,39,23.30
2018,04,26,15,40,23.30
2018,04,26,15,41,23.30
2018,04,26,15,42,23.20
2018,04,26,15,43,23.20
2018,04,26,15,44,23.30
2018,04,26,15,45,23.30
2018,04,26,15,46,23.40
2018,04,26,15,47,23.50
2018,04,26,15,48,23.50
2018,04,26,15,49,23.50
2018,04,26,15,50,23.50
2018,04,26,15,51,23.60
2018,04,26,15,52,23.70
2018,04,26,15,53,23.70
2018,04,26,15,54,23.80
2018,04,26,15,55,23.90
2018,04,26,15,56,24.00
2018,04,26,15,57,24.00
2018,04,26,15,58,24.00
2018,04,26,15,59,24.00
2018,04,26,16,00,23.90
2018,04,26,16,01,23.80
2018,04,26,16,02,23.70
2018,04,26,16,03,23.70
2018,04,26,16,04,23.70
2018,04,26,16,05,23.70
2018,04,26,16,06,23.70
2018,04,26,16,07,23.70
2018,04,26,16,08,23.70
2018,04,26,16,09,23.70
2018,04,26,16,10,23.70
2018,04,26,16,11,23.60
2018,04,26,16,12,23.60
2018,04,26,16,13,23.60
2018,04,26,16,14,23.50
2018,04,26,16,15,23.50
2018,04,26,16,16,23.60
2018,04,26,16,17,23.50
2018,04,26,16,18,23.60
2018,04,26,16,19,23.60
2018,04,26,16,20,23.60
2018,04,26,16,21,23.60
2018,04,26,16,22,23.50
2018,04,26,16,23,23.50
2018,04,26,16,24,23.40
2018,04,26,16,25,23.30
2018,04,26,16,26,23.30
2018,04,26,16,27,23.20
2018,04,26,16,28,23.20
2018,04,26,16,29,23.20
2018,04,26,16,30,23.20
2018,04,26,16,31,23.30
2018,04,26,16,32,23.30
2018,04,26,16,33,23.40
2018,04,26,16,34,23.50
2018,04,26,16,35,23.60
2018,04,26,16,36,23.60
2018,04,26,16,37,23.60
2018,04,26,16,38,23.60
2018,04,26,16,39,23.60
2018,04,26,16,40,23.60
2018,04,26,16,41,23.60
2018,04,26,16,42,23.60
2018,04,26,16,43,23.60
2018,04,26,16,44,23.60
2018,04,26,16,45,23.60
2018,04,26,16,46,23.70
2018,04,26,16,47,23.70
2018,04,26,16,48,23.70
2018,04,26,16,49,23.60
2018,04,26,16,50,23.60
2018,04,26,16,51,23.60
2018,04,26,16,52,23.60
2018,04,26,16,53,23.60
2018,04,26,16,54,23.50
2018,04,26,16,55,23.50
2018,04,26,16,56,23.40
2018,04,26,16,57,23.40
2018,04,26,16,58,23.40
2018,04,26,16,59,23.40
2018,04,26,17,00,23.40
2018,04,26,17,01,23.50
2018,04,26,17,02,23.50
2018,04,26,17,03,23.60
2018,04,26,17,04,23.60
2018,04,26,17,05,23.60
2018,04,26,17,06,23.60
2018,04,26,17,07,23.60
2018,04,26,17,08,23.60
2018,04,26,17,09,23.60
2018,04,26,17,10,23.60
2018,04,26,17,11,23.60
2018,04,26,17,12,23.50
2018,04,26,17,13,23.50
2018,04,26,17,14,23.40
2018,04,26,17,15,23.40
2018,04,26,17,16,23.40
2018,04,26,17,17,23.40
2018,04,26,17,18,23.40
2018,04,26,17,19,23.50